Weather History for Baudette, MN

Change the Weather History Date:

Friday, June 7, 2013

  Actual Average Record
Temperature  
Mean Temperature 55 °F -  
Max Temperature 68 °F 74 °F 98 °F (1988)
Min Temperature 44 °F 48 °F 34 °F (1949)
Degree Days  
Heating Degree Days 10    
Growing Degree Days 5 (Base 50)    
Moisture  
Dew Point 47 °F    
Average Humidity 73    
Maximum Humidity 100    
Minimum Humidity 49    
Precipitation  
Precipitation 0.00 in - - ()
Sea Level Pressure  
Sea Level Pressure 30.00 in    
Wind  
Wind Speed 3 mph (SSE)    
Max Wind Speed 10 mph    
Max Gust Speed -    
Visibility 9 miles    
Events      
Averages and records for this station are not official NWS values.
T = Trace of Precipitation, MM = Missing Value Source: NWS Daily Summary

Daily Weather History Graph

Daily Weather History Graph

Search for Another Location

Airport:

Trip Planner

Search our weather history database for the weather conditions in past years. The results will help you decide how hot, cold, wet, or windy it might be!

Date:

Astronomy

Jun. 07, 2013 Rise Set
Actual Time 5:16 AM CDT 9:18 PM CDT
Civil Twilight 4:35 AM CDT 10:00 PM CDT
Nautical Twilight 3:36 AM CDT 10:58 PM CDT
Astronomical Twilight 1:55 AM CDT 12:43 AM CDT
Moon 4:46 AM CDT (6/7) 8:27 PM CDT (6/7)
Length of Visible Light 17h 25m
Length of Day
16h 01m
Waning Crescent, 1% of the Moon is Illuminated
Jun 7
Waning Crescent
Jun 8
New
Jun 16
First Quarter
Jun 23
Full
Jun 29
Last Quarter

Hourly Weather History & Observations

Time (CDT) Temp. Dew Point Humidity Pressure Visibility Wind Dir Wind Speed Gust Speed Precip Events Conditions
12:53 AM 48.9 °F 46.0 °F 90% 30.06 in 10.0 mi Calm Calm - N/A   Clear
1:53 AM 48.9 °F 46.0 °F 90% 30.06 in 10.0 mi Calm Calm - N/A   Clear
2:53 AM 46.9 °F 46.0 °F 97% 30.05 in 9.0 mi Calm Calm - N/A   Clear
3:18 AM 46.4 °F 44.6 °F 93% 30.03 in 1.8 mi Calm Calm - N/A   Clear
3:27 AM 44.6 °F 44.6 °F 100% 30.02 in 3.0 mi Calm Calm - N/A   Clear
3:53 AM 46.9 °F 46.0 °F 97% 30.04 in 10.0 mi Calm Calm - N/A   Clear
4:53 AM 46.0 °F 45.0 °F 96% 30.04 in 10.0 mi Calm Calm - N/A   Clear
5:53 AM 45.0 °F 45.0 °F 100% 30.05 in 10.0 mi Calm Calm - N/A   Clear
6:53 AM 48.9 °F 48.0 °F 97% 30.06 in 10.0 mi Calm Calm - N/A   Overcast
7:53 AM 52.0 °F 50.0 °F 93% 30.05 in 10.0 mi SE 3.5 mph - N/A   Partly Cloudy
8:53 AM 57.0 °F 50.0 °F 77% 30.05 in 10.0 mi SSW 8.1 mph - N/A   Overcast
9:53 AM 57.9 °F 48.9 °F 72% 30.05 in 10.0 mi South 5.8 mph - N/A   Overcast
10:53 AM 60.1 °F 46.9 °F 62% 30.04 in 10.0 mi South 9.2 mph - N/A   Clear
11:53 AM 63.0 °F 46.9 °F 56% 30.02 in 10.0 mi South 10.4 mph - N/A   Scattered Clouds
12:53 PM 64.0 °F 46.0 °F 52% 30.01 in 10.0 mi SSE 8.1 mph - N/A   Overcast
1:53 PM 66.0 °F 48.0 °F 52% 29.99 in 10.0 mi South 9.2 mph - N/A   Scattered Clouds
2:53 PM 66.0 °F 46.9 °F 50% 29.98 in 10.0 mi SE 6.9 mph - N/A   Mostly Cloudy
3:53 PM 64.9 °F 46.0 °F 50% 29.96 in 10.0 mi ESE 5.8 mph - N/A   Overcast
4:53 PM 64.0 °F 48.0 °F 56% 29.96 in 10.0 mi ESE 9.2 mph - N/A   Overcast
5:53 PM 66.9 °F 46.9 °F 49% 29.95 in 10.0 mi Variable 6.9 mph - N/A   Mostly Cloudy
6:53 PM 64.9 °F 46.0 °F 50% 29.94 in 10.0 mi SE 3.5 mph - N/A   Partly Cloudy
7:53 PM 64.9 °F 48.9 °F 56% 29.94 in 10.0 mi NNW 5.8 mph - N/A   Overcast
8:53 PM 61.0 °F 46.9 °F 60% 29.93 in 10.0 mi SE 3.5 mph - N/A   Scattered Clouds
9:53 PM 59.0 °F 46.9 °F 64% 29.94 in 10.0 mi SE 4.6 mph - N/A   Overcast
10:53 PM 55.9 °F 46.0 °F 69% 29.94 in 10.0 mi SE 3.5 mph - N/A   Clear
11:53 PM 53.1 °F 46.9 °F 80% 29.94 in 10.0 mi ESE 4.6 mph - N/A   Clear